Wetbulb
63.78 63.94 66.96 67.49 68.72 69.84 70.71 70.94 71.75 72.05 72.25 72.05 72.67 73.40 74.18 74.53 74.84 73.78 73.92 74.64 73.99 73.63 73.54 74.17 75.86 76.35 76.51 76.76 77.16 77.28 78.19 77.33 76.88
63.24 65.46 66.56 67.13 68.65 69.63 70.57 71.17 71.91 72.23 72.47 72.72 72.87 72.81 74.37 74.72 74.68 74.34 74.19 75.19 75.48 74.75 75.40 74.76 75.29 75.44 75.96 76.40 76.57 77.24 77.26 76.57 76.63
63.35 64.19 64.90 65.85 67.91 69.32 70.62 71.50 72.23 72.67 73.06 72.96 73.07 73.09 73.55 73.94 74.54 75.10 75.21 75.43 75.19 75.36 75.81 75.87 75.57 75.74 75.62 75.71 76.21 76.77 77.46 76.68 76.82
64.30 64.72 64.83 65.78 67.01 67.00 68.17 71.75 70.40 72.25 72.48 72.83 72.89 73.01 73.66 73.70 73.94 74.53 75.15 74.98 75.67 75.84 76.21 76.38 75.90 76.42 76.71 76.54 76.02 76.32 76.84 77.29 76.71
64.91 66.16 66.63 67.83 66.88 67.12 68.51 69.43 71.05 71.89 72.43 72.62 73.00 73.33 73.52 73.50 74.05 74.58 74.37 75.00 75.36 76.00 75.71 76.62 76.50 76.42 76.36 76.32 76.17 76.54 76.39 75.80 75.32
63.63 64.46 66.02 67.53 68.07 68.01 68.71 69.74 69.74 71.54 72.66 72.94 73.47 73.69 73.36 73.42 73.53 73.85 74.43 74.94 75.57 75.85 75.86 76.06 76.12 75.86 75.86 76.36 76.09 75.80 76.26 76.02 75.62
65.24 64.24 64.67 66.77 67.88 68.57 68.84 68.82 69.74 70.06 72.02 72.31 73.59 73.15 72.96 73.18 73.81 74.39 73.93 75.48 75.81 75.53 75.64 75.72 75.78 76.17 75.69 75.52 75.82 75.92 75.81 76.05 76.04
64.06 64.78 65.53 64.62 66.28 68.24 69.36 69.47 68.53 70.35 72.43 72.18 73.44 71.04 72.93 71.88 74.52 75.03 75.16 75.29 75.77 75.90 75.83 75.14 75.76 75.51 74.87 75.21 75.52 74.91 75.11 75.95 75.71
62.14 63.77 65.04 65.67 65.94 66.25 66.99 68.32 69.01 69.49 71.27 72.02 71.95 71.39 70.07 70.13 70.42 73.51 74.36 74.71 75.29 75.74 75.92 75.64 74.71 74.24 74.81 74.56 72.54 63.40 64.87 68.02 72.73
60.91 62.00 63.79 64.67 65.65 66.09 66.83 67.56 68.38 68.69 69.45 70.67 70.71 70.70 70.21 69.13 68.83 69.21 71.67 72.87 73.65 74.26 75.11 74.79 74.51 73.39 73.20 72.16 69.06 61.32 63.42 64.88 68.31
60.35 61.47 62.24 63.89 65.20 66.09 66.74 67.93 68.76 69.53 70.51 69.90 70.21 70.12 69.12 70.09 68.67 67.91 68.56 69.07 70.09 71.79 71.65 71.39 72.29 71.28 70.61 70.47 65.23 57.96 59.55 62.79 69.05
58.93 59.71 60.71 63.53 65.91 65.29 65.29 65.63 66.44 66.78 67.52 68.50 68.16 67.92 67.97 67.41 69.11 66.09 66.93 67.11 68.81 68.67 68.88 67.79 68.72 68.05 68.36 67.91 67.61 56.02 56.60 63.25 70.26
58.23 58.33 58.80 60.00 62.21 63.94 64.83 66.31 66.34 65.19 64.69 63.40 62.69 64.69 65.78 65.87 66.21 65.80 65.85 65.30 63.76 64.47 65.25 62.38 63.69 61.74 61.41 56.28 61.15 54.08 55.00 61.80 68.91
59.68 58.52 58.55 59.29 58.88 59.11 60.47 62.92 63.35 61.67 60.89 60.95 61.90 62.72 62.71 64.97 64.63 64.13 63.59 62.59 62.48 61.43 60.83 61.13 60.74 59.60 58.01 58.66 55.58 56.38 53.44 55.41 66.22
59.88 59.57 59.19 58.87 59.00 58.28 59.30 60.49 59.77 57.97 58.31 59.55 60.31 59.90 60.99 60.20 62.78 63.08 62.61 62.31 61.52 60.31 59.81 59.57 58.30 58.07 58.54 57.89 57.76 53.02 53.20 52.85 54.98
59.06 58.95 58.39 59.29 59.70 60.31 59.37 59.42 60.22 58.04 58.26 58.45 58.53 58.72 58.13 57.95 58.71 59.54 61.92 61.99 61.31 60.81 60.97 59.67 59.88 58.08 56.98 56.96 57.63 58.28 53.04 52.49 53.71
58.76 58.87 57.98 58.99 60.01 59.56 58.66 59.05 58.52 58.27 57.79 56.59 55.66 54.22 54.24 53.14 56.08 56.01 56.94 56.34 60.60 61.10 60.75 60.14 59.22 56.30 53.04 50.48 51.23 54.41 55.72 57.14 56.00
55.78 55.49 55.78 57.16 58.37 57.92 57.06 57.57 58.45 59.08 57.46 56.33 54.29 53.38 52.99 50.93 50.56 52.14 50.62 47.75 46.88 52.07 50.41 52.66 56.54 54.37 51.20 49.59 48.92 47.37 44.59 49.88 56.36
57.54 56.47 56.67 56.42 55.11 54.82 55.22 56.39 56.59 57.22 58.96 58.24 55.91 53.57 52.10 50.07 49.86 48.91 48.93 47.63 47.00 44.46 43.75 42.49 41.19 41.81 47.04 48.76 44.41 42.28 41.14 42.83 45.12
54.78 56.50 56.81 57.07 56.79 56.44 56.77 57.17 56.56 57.49 58.50 57.61 55.38 53.40 51.52 50.01 50.95 52.09 51.73 52.02 51.79 50.35 44.64 42.63 41.11 40.60 40.97 42.05 43.91 40.79 40.34 41.80 42.39
MSLP
1011.82 1012.42 1012.62 1012.85 1013.36 1013.98 1014.58 1015.22 1016.08 1016.72 1017.31 1017.85 1018.58 1018.95 1019.15 1019.43 1019.55 1019.49 1019.55 1019.75 1019.94 1020.15 1020.26 1020.25 1020.39 1020.49 1020.54 1020.61 1020.74 1020.65 1020.79 1020.65 1020.68
1011.28 1011.64 1012.22 1012.47 1012.96 1013.50 1014.09 1014.75 1015.50 1016.21 1016.82 1017.45 1018.08 1018.48 1018.87 1019.07 1019.37 1019.61 1019.64 1019.86 1020.02 1019.90 1019.99 1019.95 1020.16 1020.33 1020.37 1020.29 1020.38 1020.52 1020.65 1020.63 1020.63
1011.20 1011.78 1012.33 1012.65 1012.91 1013.47 1013.81 1014.40 1015.02 1015.77 1016.33 1016.85 1017.40 1017.91 1018.36 1018.66 1019.05 1019.40 1019.61 1019.78 1019.83 1019.83 1019.74 1019.69 1019.82 1019.92 1020.01 1020.10 1020.19 1020.34 1020.44 1020.54 1020.54
1010.96 1011.34 1011.57 1012.15 1012.80 1013.62 1014.13 1014.46 1015.07 1015.34 1016.03 1016.56 1017.06 1017.49 1017.91 1018.32 1018.65 1019.08 1019.40 1019.46 1019.49 1019.52 1019.52 1019.47 1019.61 1019.66 1019.72 1019.79 1019.92 1020.01 1020.25 1020.36 1020.50
1011.33 1011.31 1011.73 1012.14 1012.70 1013.32 1013.95 1014.31 1014.84 1015.20 1015.73 1016.17 1016.61 1017.12 1017.71 1018.00 1018.33 1018.62 1018.89 1019.05 1018.95 1019.14 1019.30 1019.07 1019.18 1019.33 1019.46 1019.52 1019.59 1019.79 1019.89 1020.01 1020.08
1011.75 1011.66 1011.97 1012.32 1012.81 1013.34 1013.57 1014.04 1014.72 1015.03 1015.40 1015.67 1016.15 1016.79 1017.29 1017.58 1017.90 1018.17 1018.41 1018.56 1018.75 1018.90 1018.96 1018.89 1018.87 1019.12 1019.10 1019.19 1019.29 1019.41 1019.68 1019.77 1019.91
1012.15 1012.07 1012.38 1012.52 1012.80 1013.09 1013.63 1014.13 1014.53 1014.84 1015.32 1015.71 1016.02 1016.43 1016.82 1017.19 1017.40 1017.70 1017.97 1018.22 1018.48 1018.62 1018.80 1018.78 1018.68 1018.74 1018.94 1019.09 1019.27 1019.45 1019.51 1019.62 1019.75
1012.90 1012.61 1012.73 1013.03 1013.45 1013.65 1014.13 1014.60 1014.91 1015.12 1015.35 1015.61 1015.90 1016.32 1016.65 1016.95 1017.01 1017.35 1017.65 1018.00 1018.25 1018.37 1018.52 1018.45 1018.61 1018.68 1018.96 1019.10 1019.19 1019.43 1019.63 1019.57 1019.55
1013.97 1013.78 1013.62 1013.61 1013.82 1013.85 1013.94 1014.36 1014.64 1015.05 1015.26 1015.76 1016.12 1016.38 1016.52 1016.81 1017.12 1017.32 1017.46 1017.76 1017.90 1018.17 1018.26 1018.39 1018.77 1018.81 1018.96 1019.01 1019.55 1019.89 1019.95 1020.09 1019.97
1014.94 1014.84 1014.64 1014.52 1014.48 1014.53 1014.59 1014.83 1015.19 1015.44 1015.69 1015.79 1016.16 1016.61 1016.98 1017.26 1017.31 1017.56 1017.78 1017.82 1017.95 1018.14 1018.15 1018.36 1018.67 1019.04 1019.15 1019.31 1019.83 1019.99 1019.93 1020.02 1020.14
1016.04 1015.99 1015.72 1015.40 1015.33 1015.31 1015.42 1015.60 1015.79 1015.88 1015.99 1016.08 1016.06 1016.41 1016.88 1017.29 1018.02 1017.75 1017.98 1018.25 1018.34 1018.46 1018.73 1018.92 1018.76 1019.15 1019.41 1019.69 1020.16 1020.22 1020.06 1019.98 1020.05
1017.24 1017.12 1016.89 1016.54 1016.23 1016.29 1016.29 1016.25 1016.34 1016.46 1016.81 1016.84 1016.91 1017.14 1017.40 1017.55 1017.70 1018.12 1017.64 1018.43 1018.68 1018.89 1019.10 1019.55 1019.61 1019.47 1019.90 1020.20 1020.50 1021.02 1020.56 1020.12 1019.89
1017.76 1017.86 1017.78 1017.54 1017.33 1017.06 1016.92 1016.94 1017.01 1017.12 1017.33 1017.45 1017.59 1017.80 1018.00 1018.06 1017.72 1018.08 1018.56 1018.93 1019.28 1019.69 1019.87 1020.33 1020.55 1020.36 1020.36 1020.88 1021.07 1021.44 1020.68 1020.46 1020.20
1018.00 1018.23 1018.33 1018.29 1018.16 1018.08 1017.93 1017.81 1017.82 1018.09 1018.23 1018.42 1018.54 1018.60 1018.59 1018.67 1018.99 1018.53 1018.76 1019.02 1019.36 1019.87 1020.43 1020.62 1020.96 1020.82 1021.17 1021.49 1021.35 1021.41 1020.92 1020.54 1020.20
1017.96 1018.42 1018.47 1018.66 1018.58 1018.64 1018.66 1018.55 1018.67 1018.95 1019.16 1019.31 1019.30 1019.51 1019.39 1019.46 1019.16 1019.35 1019.41 1019.70 1020.12 1020.40 1020.62 1020.87 1021.29 1021.34 1021.35 1021.64 1021.90 1021.88 1021.28 1020.78 1020.54
1018.18 1018.55 1018.70 1018.81 1018.82 1018.93 1019.15 1019.15 1019.22 1019.37 1019.72 1019.82 1019.79 1019.86 1019.95 1020.12 1020.29 1020.25 1020.02 1020.13 1020.43 1020.62 1020.90 1021.21 1021.49 1021.41 1021.34 1021.96 1022.23 1021.92 1021.31 1021.16 1021.36
1018.45 1018.80 1019.03 1019.09 1019.09 1019.31 1019.66 1019.76 1019.80 1019.96 1020.20 1020.19 1020.28 1020.32 1020.43 1020.74 1020.70 1020.71 1020.91 1020.88 1021.03 1021.03 1021.23 1021.34 1021.68 1021.38 1021.54 1022.04 1022.23 1022.38 1022.52 1022.53 1022.76
1018.86 1019.28 1019.63 1019.63 1019.56 1019.78 1020.08 1020.20 1020.21 1020.35 1020.50 1020.68 1020.82 1020.99 1021.23 1021.36 1021.52 1021.57 1021.86 1022.09 1022.75 1022.63 1022.93 1022.54 1022.16 1022.24 1022.07 1022.52 1022.69 1023.18 1023.45 1023.75 1023.50
1018.84 1019.12 1019.43 1019.72 1020.07 1020.21 1020.39 1020.45 1020.56 1020.72 1020.67 1020.68 1020.89 1021.15 1021.57 1021.89 1021.94 1022.20 1022.35 1022.66 1023.24 1023.68 1023.52 1023.33 1023.08 1022.94 1022.75 1023.29 1023.40 1023.75 1023.78 1023.94 1023.80
1019.03 1019.26 1019.41 1019.58 1019.86 1020.15 1020.39 1020.59 1020.82 1021.04 1020.98 1020.96 1021.14 1021.29 1021.69 1021.98 1022.11 1022.17 1022.36 1022.62 1023.06 1023.48 1024.05 1024.04 1023.95 1023.84 1023.82 1023.44 1023.31 1024.06 1024.20 1024.23 1024.08
Wind_Speed
9 12 16 19 18 17 16 17 15 15 14 14 14 12 11 9 8 6 7 7 6 5 5 5 4 5 6 6 4 2 2 3 3
14 18 19 21 20 19 17 16 16 16 15 14 14 15 11 9 8 8 7 6 6 4 5 5 6 6 7 6 6 5 4 4 4
13 11 12 12 16 17 15 15 15 14 14 15 15 14 12 10 10 9 7 6 7 6 5 6 7 7 8 7 7 6 5 4 4
15 14 14 15 13 9 9 13 10 14 13 13 12 13 12 11 10 10 8 8 8 7 6 6 8 7 7 7 9 8 7 6 6
9 13 13 14 11 12 12 13 12 12 12 13 13 12 11 11 10 10 10 9 8 7 7 7 7 7 7 7 8 9 9 9 8
2 5 10 12 12 12 13 12 9 11 12 14 12 12 11 11 11 11 10 9 8 7 7 8 6 7 8 7 8 9 10 9 9
1 3 7 10 11 12 10 7 7 7 9 7 9 10 11 12 12 11 10 8 7 7 7 8 8 8 8 8 7 7 8 9 9
7 5 4 7 6 7 7 6 4 3 7 6 9 7 10 8 11 10 8 8 8 7 7 7 4 3 4 7 6 2 6 8 9
10 9 7 4 8 8 9 10 9 8 8 5 5 8 6 7 4 4 5 5 6 7 7 4 4 3 2 1 2 6 7 7 7
9 10 8 6 4 2 1 3 6 7 7 7 8 7 6 5 6 6 3 1 4 6 6 6 5 4 3 5 3 5 4 1 2
9 9 9 8 7 7 7 4 4 4 5 6 8 9 7 7 3 4 3 1 3 4 3 3 6 4 4 4 5 6 5 3 3
7 7 7 7 7 8 7 7 6 6 4 3 4 4 5 6 6 3 2 3 3 4 3 1 2 4 4 4 4 11 10 3 2
6 7 6 7 7 7 7 8 7 6 7 7 6 4 3 4 6 3 4 3 4 3 3 3 1 4 5 6 4 10 8 5 4
7 6 5 5 7 6 6 6 7 8 7 7 5 5 5 5 4 6 5 5 4 4 3 4 4 6 6 6 8 7 10 8 1
6 7 7 6 7 6 6 6 7 7 6 5 6 5 7 6 7 5 5 7 6 6 5 6 4 4 5 6 7 10 11 15 13
6 6 6 5 6 8 7 7 6 7 5 5 6 7 8 7 6 6 5 5 5 5 5 5 5 4 6 5 4 6 14 14 15
6 6 6 4 6 7 9 8 8 7 6 5 6 7 7 6 6 7 7 6 4 4 4 4 4 5 5 4 5 6 5 5 6
4 4 4 5 6 7 8 7 8 7 6 5 7 7 6 6 5 7 7 9 7 4 5 4 5 4 4 3 3 2 3 3 3
6 5 4 6 6 6 6 6 7 6 6 6 6 7 5 5 5 5 5 5 5 11 10 10 10 7 4 3 6 4 6 7 11
7 6 5 5 6 6 5 6 7 6 6 5 6 6 5 4 4 4 4 4 4 5 5 7 10 9 8 6 7 9 9 10 11
Wind_Direction
161 193 205 204 199 198 198 191 188 194 193 191 192 198 202 207 211 202 199 193 194 211 230 237 234 231 236 244 247 235 220 260 292
188 203 202 206 201 199 197 194 194 195 193 199 197 199 202 199 206 214 216 210 217 212 210 226 229 236 236 238 243 241 231 251 259
202 201 208 206 204 207 198 199 197 197 203 200 199 202 201 203 206 212 217 217 222 228 238 225 224 229 237 240 240 237 231 237 242
203 202 196 202 205 192 192 201 194 193 200 206 207 204 207 204 208 211 216 221 223 227 235 230 230 234 232 238 232 227 229 228 241
205 210 205 207 189 177 189 203 191 198 200 203 211 211 209 211 212 211 216 226 233 222 237 244 234 231 248 238 235 229 225 234 245
288 212 202 194 193 186 192 194 190 195 204 212 209 207 213 217 215 215 218 223 236 245 246 237 239 246 238 248 245 225 225 234 242
184 169 197 202 193 192 185 183 181 181 197 209 216 206 206 215 214 214 220 222 226 232 236 251 236 233 231 235 240 235 234 238 243
82 87 126 163 188 178 185 180 126 171 208 185 189 187 207 209 216 202 202 208 224 231 234 231 253 262 293 266 248 299 297 256 253
60 60 70 120 157 169 174 178 185 182 193 182 183 195 186 143 137 189 195 210 229 225 228 210 202 193 213 3 76 43 47 6 316
56 51 53 76 93 132 73 134 154 174 171 157 156 168 170 172 155 140 147 182 238 239 205 161 162 160 165 127 100 16 40 83 262
45 40 42 46 59 62 55 75 84 120 155 168 163 158 163 159 184 129 154 129 235 159 143 170 151 136 123 120 88 40 16 328 255
39 25 22 32 38 55 59 57 51 54 50 107 127 134 143 141 138 119 85 94 347 43 103 159 124 89 55 20 76 14 349 267 122
64 43 16 17 25 45 44 43 66 70 50 49 38 48 120 147 137 148 118 102 71 18 65 91 54 92 73 65 5 10 355 316 161
101 85 57 58 59 54 40 37 73 74 65 51 54 71 65 60 55 115 112 98 111 111 114 122 113 86 77 51 37 33 7 27 162
86 85 84 84 86 64 48 67 85 80 75 64 69 71 85 60 65 74 100 110 111 108 112 100 92 94 73 55 46 31 64 64 52
82 72 74 75 85 84 61 61 80 84 66 88 96 85 66 59 71 66 73 99 107 110 132 135 142 116 81 66 44 43 31 65 72
88 78 77 80 95 85 77 61 66 73 68 53 53 62 64 65 71 69 56 60 55 87 83 79 61 63 70 48 38 41 43 59 86
96 85 79 68 78 82 75 72 71 66 70 82 85 75 69 63 59 68 66 58 27 45 50 12 68 66 81 90 97 106 76 46 93
147 134 120 108 93 90 82 79 73 65 65 76 87 82 69 61 71 71 81 82 58 36 36 23 49 57 93 89 37 120 122 107 102
130 128 119 116 114 111 101 93 82 68 65 74 80 82 82 82 81 88 89 86 78 85 59 53 39 34 24 349 121 135 135 114 91